This demonstration page uses our WeatherBlox Daily Observations layout. Learn more.

Left ArrowRight Arrow

Hourly Observations for July 5, 2022

Temp ( °F °C ) Dew Point ( °F °C ) Humidity (%) Winds ( mph kmh ) Pressure ( in mb ) Visibility ( mi km ) Precip ( " mm )
12:52 am 00:52 Clear 82 27.8 74 23.3 77 77 SSE 9 15 29.94 1014 10 16 0.00 0.00
1:52 am 01:52 Clear 80 26.7 74 23.3 82 82 S 7 11 29.95 1014 10 16 0.00 0.00
2:52 am 02:52 Clear 79 26.1 74 23.3 85 85 SSW 7 11 29.95 1014 10 16 0.00 0.00
3:52 am 03:52 Clear 77 25 73 22.8 88 88 S 6 9 29.95 1014 10 16 0.00 0.00
4:52 am 04:52 Clear 76 24.4 72 22.2 88 88 S 6 9 29.96 1014 10 16 0.00 0.00
5:52 am 05:52 Clear 76 24.4 72 22.2 88 88 S 7 11 29.96 1015 10 16 0.00 0.00
6:52 am 06:52 Sunny 77 25 73 22.8 88 88 SSW 7 11 29.97 1015 9 14 0.00 0.00
7:52 am 07:52 Sunny 82 27.8 72 22.2 72 72 SSW 12 19 29.98 1015 10 16 0.00 0.00
8:52 am 08:52 Sunny 87 30.6 70 21.1 57 57 SW 10 17 29.98 1015 10 16 0.00 0.00
9:52 am 09:52 Sunny 89 31.7 69 20.6 52 52 SSW 14 22 29.98 1015 10 16 0.00 0.00
10:52 am 10:52 Sunny 93 33.9 67 19.4 42 42 SW 13 20 29.96 1015 10 16 0.00 0.00
11:52 am 11:52 Sunny 94 34.4 67 19.4 41 41 SW 12 19 29.96 1015 10 16 0.00 0.00
12:52 pm 12:52 Sunny 96 35.6 66 18.9 37 37 SSW 10 17 29.94 1014 10 16 0.00 0.00
1:52 pm 13:52 Sunny 97 36.1 66 18.9 36 36 SSW 12 19 29.91 1013 10 16 0.00 0.00
2:52 pm 14:52 Sunny 97 36.1 66 18.9 36 36 SW 9 15 29.90 1013 10 16 0.00 0.00
3:52 pm 15:52 Mostly Sunny 98 36.7 66 18.9 35 35 SW 9 15 29.88 1012 10 16 0.00 0.00
4:52 pm 16:52 Sunny 98 36.7 65 18.3 34 34 SSW 12 19 29.87 1011 10 16 0.00 0.00
5:52 pm 17:52 Sunny 97 36.1 65 18.3 35 35 SSW 12 19 29.85 1011 10 16 0.00 0.00
6:52 pm 18:52 Sunny 96 35.6 64 17.8 35 35 S 12 19 29.84 1011 10 16 0.00 0.00
7:52 pm 19:52 Sunny 92 33.3 66 18.9 43 43 SSW 6 9 29.85 1011 10 16 0.00 0.00
8:52 pm 20:52 Clear 86 30 67 19.4 53 53 SSW 7 11 29.86 1011 10 16 0.00 0.00
9:52 pm 21:52 Clear 85 29.4 67 19.4 55 55 S 7 11 29.86 1011 10 16 0.00 0.00
10:52 pm 22:52 Clear 83 28.3 68 20 61 61 S 7 11 29.89 1012 10 16 0.00 0.00
11:52 pm 23:52 Clear 81 27.2 68 20 65 65 S 8 13 29.89 1012 10 16 0.00 0.00

Powered by AerisWeather